Miscellaneous Local Product
Issued by NWS Hastings, NE

Home | Current Version | Previous Version | Text Only | Print | Product List | Glossary Off
Versions: 1 2 3 4 5 6 7 8 9 10 11 12 13 14 15 16 17 18 19 20 21 22 23 24 25 26 27 28 29 30 31 32 33 34 35 36 37 38 39 40 41 42 43 44 45 46 47 48 49 50

000
AXUS43 KGID 300502
MISGRI

GID CWA HOURLY WEATHER ROUNDUP
NATIONAL WEATHER SERVICE HASTINGS NE
1200 AM CDT TUE JUN 30 2015

NOTE: "FAIR" INDICATES FEW OR NO CLOUDS BELOW 12,000 FEET WITH NO
SIGNIFICANT WEATHER AND/OR OBSTRUCTIONS TO VISIBILITY.

...SOUTH CENTRAL NEBRASKA...

CITY           SKY/WX    TMP DP  RH WIND       PRES   REMARKS
GRAND ISLAND   CLEAR     70  62  76 SE5       29.99S
HASTINGS       CLEAR     71  62  73 CALM      29.99S
KEARNEY        CLEAR     73  61  64 W3        30.00S
ORD            CLEAR     64  59  83 CALM      29.98S
YORK           PTCLDY    68  63  83 CALM      29.98S
AURORA         CLEAR     72  62  68 S3        29.98F
LEXINGTON      CLEAR     70  64  81 CALM      30.02F
HOLDREGE       CLEAR     73  61  67 S3        30.02R
HEBRON         CLEAR     69  63  80 CALM      29.97F

...NEBRASKA PANHANDLE...

CITY           SKY/WX    TMP DP  RH WIND       PRES   REMARKS
CHADRON        PTCLDY    64  60  87 SW7       30.07R
ALLIANCE       PTCLDY    61  58  90 W3        30.11R
SCOTTSBLUFF    CLEAR     68  57  68 E7        30.12S
SIDNEY           N/A     64  59  83 CALM      30.15S

...WESTERN AND NORTH CENTRAL NEBRASKA...

CITY           SKY/WX    TMP DP  RH WIND       PRES   REMARKS
VALENTINE      CLEAR     65  61  87 SW7       30.02R
AINSWORTH      CLEAR     71  61  71 SW7       30.02S
ONEILL         CLEAR     71  63  75 S5        29.98S
BROKEN BOW     CLEAR     65  61  87 CALM      30.02S
IMPERIAL       CLEAR     69  58  67 W3        30.07S
NORTH PLATTE   CLEAR     69  62  78 CALM      30.05R
MCCOOK         CLEAR     75  59  57 S3        30.03R

...EASTERN NEBRASKA...

CITY           SKY/WX    TMP DP  RH WIND       PRES   REMARKS
NORFOLK        CLEAR     66  63  90 SW5       29.95S FOG
SO SIOUX CITY  PTCLDY    70  62  76 CALM      29.91S
TEKAMAH        PTCLDY    67  61  81 SW3       29.92R
COLUMBUS       PTCLDY    64  57  77 NW3       29.96R
ALBION         CLEAR     65  60  83 CALM      29.98S
OMAHA EPPLEY   CLOUDY    71  64  78 CALM      29.91F
OFFUTT AFB     CLEAR     64  62  94 CALM      29.91S
MILLARD        CLEAR     69  64  84 CALM      29.92S
LINCOLN        CLEAR     73  64  73 W3        29.95S
NEBRASKA CITY  CLEAR     73  57  59 CALM      29.93F
BEATRICE       CLEAR     70  65  85 SW3       29.96S
FALLS CITY     CLEAR     72  65  78 CALM      29.93S

...NORTHERN KANSAS...

CITY           SKY/WX    TMP DP  RH WIND       PRES   REMARKS
GOODLAND       CLEAR     70  56  61 SW9       30.10S
HILL CITY      CLEAR     71  54  54 CALM      30.01S
NORTON         CLEAR     72  55  56 CALM      30.02R
PHILLIPSBURG   CLEAR     75  57  53 CALM      30.00S
SMITH CENTER   CLEAR     70  59  68 SE6       29.99S
HAYS           PTCLDY    73  52  46 E9        30.01S
RUSSELL        CLEAR     73  58  59 SE8       29.99S
CONCORDIA      CLEAR     71  60  68 SE5       29.97S
SALINA         CLEAR     74  59  59 S7        29.97S
TOPEKA         CLEAR     72  68  87 CALM      29.94R



USA.gov is the U.S. government's official web portal to all federal, state and local government web resources and services.